This is the latest recevied weather packets stored in our database for station/object KE8WAY. If no packets are shown the sender has not sent any weather packets the latest 1 day(s).
| Time | Temp. | Humidity | Pressure | Rain* | Wind** | Luminosity | Snow |
|---|---|---|---|---|---|---|---|
| 1778040896 | 8.89° C | 92% | 1008.2 hPa | 1.27 mm | - | 0 W/m² | - |
| 1778040593 | 8.89° C | 92% | 1008.3 hPa | 0 mm | - | 0 W/m² | - |
| 1778040291 | 8.89° C | 92% | 1008.4 hPa | 0 mm | - | 0 W/m² | - |
| 1778039380 | 8.89° C | 92% | 1008.2 hPa | 0 mm | - | 0 W/m² | - |
| 1778039078 | 8.89° C | 92% | 1008.1 hPa | 0 mm | - | 0 W/m² | - |
| 1778038775 | 8.89° C | 92% | 1008.1 hPa | 0 mm | - | 0 W/m² | - |
| 1778038169 | 8.89° C | 92% | 1008.1 hPa | 1.27 mm | - | 0 W/m² | - |
| 1778037866 | 9.44° C | 92% | 1008.1 hPa | 1.27 mm | - | 0 W/m² | - |
| 1778037562 | 9.44° C | 92% | 1008.1 hPa | 0 mm | - | 0 W/m² | - |
| 1778037260 | 9.44° C | 92% | 1008.2 hPa | 0 mm | - | 0 W/m² | - |
| 1778036352 | 9.44° C | 92% | 1008.3 hPa | 0 mm | - | 0 W/m² | - |
| 1778036049 | 9.44° C | 92% | 1008.4 hPa | 0 mm | - | 0 W/m² | - |
| 1778035138 | 9.44° C | 92% | 1008.3 hPa | 1.27 mm | - | 0 W/m² | - |
| 1778034836 | 9.44° C | 92% | 1008.3 hPa | 1.27 mm | - | 0 W/m² | - |
| 1778034532 | 9.44° C | 92% | 1008.3 hPa | 0 mm | - | 0 W/m² | - |
| 1778034230 | 9.44° C | 92% | 1008.3 hPa | 1.78 mm | - | 0 W/m² | - |
| 1778033928 | 9.44° C | 92% | 1008.2 hPa | 1.78 mm | - | 0 W/m² | - |
| 1778033321 | 9.44° C | 92% | 1008.7 hPa | 3.05 mm | - | 0 W/m² | - |
| 1778033019 | 9.44° C | 92% | 1008.2 hPa | 3.56 mm | - | 0 W/m² | - |
| 1778032414 | 9.44° C | 92% | 1008.2 hPa | 1.27 mm | - | 0 W/m² | - |
| 1778032110 | 9.44° C | 92% | 1008 hPa | 1.27 mm | - | 0 W/m² | - |
| 1778031807 | 9.44° C | 92% | 1008 hPa | 1.78 mm | - | 0 W/m² | - |
| 1778031503 | 9.44° C | 92% | 1008 hPa | 1.78 mm | - | 0 W/m² | - |
| 1778031201 | 9.44° C | 92% | 1008 hPa | 0 mm | - | 0 W/m² | - |
| 1778030897 | 9.44° C | 92% | 1007.8 hPa | 1.27 mm | - | 0 W/m² | - |
* Rain latest hour (hover to see other rain measurements)
** Current wind speed in m/s (hover to see current wind gust speed)